Location: Austin
(30.3000°N, 97.7500°W)
Time: 15:21:53
(UTC-06:00)

NOSS 2-2 (D) - Pass Details

Date: 10 January 2026
Orbit: 385 x 1701 km, 63.3° (Epoch: 20 January)

Event Time Altitude Azimuth Distance (km) Brightness Sun altitude
Rises 18:08:38 0° 331° (NNW) 2,804 7.0 -4.7°
Reaches altitude 10° 18:10:34 10° 332° (NNW) 2,039 6.3 -5.1°
Maximum altitude 18:15:12 86° 63° (ENE) 813 4.1 -6.1°
Drops below altitude 10° 18:21:50 10° 151° (SSE) 2,882 6.9 -7.4°
Sets 18:24:59 0° 152° (SSE) 4,062 7.7 -8.0°
